Wind_Speed
35 33 34 35 35 36 36 36 34 32 32 32 30 28 27 27 26 26 26 25 25 25 24 23 22 22 21 20 20 20 19 18 18 18 18 18 18 18 18 17 18 18 18 18
36 35 34 35 35 36 36 36 36 35 35 33 32 31 29 29 29 29 28 28 28 27 27 26 25 24 24 24 23 22 22 21 21 20 21 21 20 20 20 20 20 20 20 20
36 36 35 36 36 36 36 36 36 36 36 34 34 33 32 31 31 31 31 30 30 30 29 29 28 28 27 27 26 26 25 24 23 23 23 23 23 24 23 22 23 23 22 22
36 36 37 37 37 36 36 36 36 36 36 35 35 35 34 34 34 34 33 33 33 32 32 31 31 31 31 30 28 28 28 27 27 26 26 26 27 26 26 26 25 24 24 24
36 36 38 39 38 37 37 38 38 38 38 37 37 36 36 36 36 36 36 35 35 35 35 35 35 34 33 32 31 31 30 30 30 30 29 29 29 29 28 27 26 26 26 26
37 35 36 38 38 38 38 40 39 39 39 39 39 39 39 38 37 37 37 38 37 37 37 38 38 36 35 34 34 33 32 33 33 33 32 31 30 30 29 29 29 29 28 28
36 36 36 38 37 36 38 39 38 38 39 39 39 40 39 39 39 38 38 39 39 39 39 40 40 39 38 37 36 36 36 36 36 36 35 34 33 33 32 32 31 31 30 30
36 36 37 39 37 37 38 38 37 38 38 39 39 40 40 40 40 40 40 40 41 41 42 42 42 41 41 41 40 40 39 39 39 38 38 37 36 35 35 34 34 33 32 31
37 38 39 39 39 38 38 37 37 38 38 39 40 40 41 41 41 41 41 41 42 42 42 43 43 43 44 43 43 42 42 42 42 41 41 40 39 38 37 35 34 34 33 32
36 37 38 38 38 39 38 38 38 38 39 39 40 40 41 41 42 41 41 41 42 42 42 42 43 43 43 43 43 43 43 43 43 43 42 41 41 40 39 37 35 34 34 34
34 34 35 36 36 37 38 39 39 39 40 40 40 40 41 41 42 42 42 42 43 43 43 43 43 43 43 43 43 43 44 45 46 43 41 41 40 40 39 37 36 36 36 35
33 34 34 34 35 36 37 37 38 39 39 40 41 42 42 43 43 43 43 43 43 44 44 44 44 44 44 45 45 45 45 46 46 45 44 43 44 42 39 37 37 38 38 38
32 32 33 33 34 35 36 37 38 38 39 39 40 41 42 42 42 42 42 42 43 43 44 45 45 44 44 45 45 45 45 45 45 45 43 42 43 42 40 39 39 38 37 37
30 31 32 33 33 34 35 36 37 37 38 39 39 39 40 40 40 40 41 42 42 43 43 44 44 45 45 44 45 45 44 44 45 43 44 44 44 44 44 41 38 38 37 38
29 30 31 31 32 33 34 35 35 36 37 37 37 38 38 39 39 38 39 41 42 42 42 42 42 43 44 44 44 44 44 44 44 43 43 43 43 42 40 38 38 38 38 39
28 28 29 30 30 31 31 32 33 34 34 34 35 36 36 37 37 36 36 38 39 39 39 39 40 40 41 41 42 42 42 42 41 41 41 40 39 38 38 36 36 37 38 38
26 26 26 27 28 28 29 31 32 32 31 31 32 33 34 34 34 34 35 35 36 37 37 36 37 37 37 37 38 39 40 40 40 40 40 39 37 37 36 36 37 38 37 37
22 23 24 24 25 26 27 28 28 29 29 29 30 31 31 31 31 31 32 33 34 34 35 34 33 33 33 35 37 38 39 39 39 38 38 36 36 35 35 36 36 36 35 34
20 21 21 21 22 23 23 24 25 25 25 26 26 27 28 27 27 28 28 29 30 32 32 31 31 31 32 33 34 34 35 35 35 36 35 36 36 35 34 33 33 33 32 31
18 18 19 20 20 20 20 21 22 23 23 24 24 23 24 24 25 26 26 27 28 28 28 29 29 28 28 29 30 31 32 33 34 34 33 33 34 33 32 31 31 31 31 31
16 16 17 17 17 18 18 19 20 21 21 21 21 21 22 23 24 24 25 25 26 26 26 27 27 27 27 28 29 30 31 32 32 32 32 32 33 32 31 31 30 30 30 31
16 16 15 16 17 17 18 19 19 19 20 20 20 20 21 22 23 24 24 24 24 24 25 26 26 26 26 27 28 28 28 29 30 30 31 31 31 30 30 30 29 29 30 31
14 14 14 15 16 16 17 17 18 18 18 19 19 20 20 20 21 21 21 21 21 21 22 23 24 24 25 26 26 26 26 27 27 28 28 29 29 30 29 28 28 29 29 30
12 12 12 13 13 13 13 14 15 16 16 17 18 17 17 17 17 17 17 18 19 19 19 20 21 22 23 23 23 23 23 24 24 25 25 26 26 26 26 27 27 28 29 29
12 12 12 11 11 11 12 13 14 15 15 15 15 15 15 15 15 15 15 16 17 18 18 18 18 19 20 21 21 20 20 20 21 21 22 22 23 23 24 25 26 26 27 27
11 12 12 12 12 12 12 12 13 14 14 14 14 14 14 13 13 13 14 14 15 15 16 16 17 17 18 18 18 19 19 20 20 21 21 21 22 22 23 23 24 25 26 27
9 10 10 11 11 11 11 11 11 11 12 13 13 12 12 12 12 13 13 13 13 14 15 15 16 16 17 17 17 18 18 18 19 20 20 20 21 21 21 22 23 24 25 26
Wind_Direction
234 236 240 241 241 242 242 242 244 249 251 251 254 255 252 250 250 251 252 253 256 258 260 262 264 266 268 271 275 280 283 287 291 294 297 299 299 299 298 298 299 300 301 302
238 239 241 242 242 243 244 245 246 248 251 253 254 255 253 251 251 252 252 251 254 256 257 259 261 263 266 269 271 273 277 281 287 292 293 294 293 292 292 294 294 295 296 295
240 241 243 243 242 243 245 246 247 249 251 253 254 254 253 251 251 252 251 252 253 255 256 257 260 262 266 269 271 273 277 280 283 287 290 290 290 289 288 289 290 291 293 291
241 243 243 245 244 245 246 247 248 249 251 253 254 255 254 252 251 250 250 252 253 254 255 256 258 261 264 265 268 270 273 276 279 283 285 288 289 289 287 288 289 289 293 294
242 245 247 247 246 247 248 250 249 250 251 252 253 255 255 253 252 251 250 251 252 253 254 255 257 259 261 264 266 269 270 273 276 278 282 284 285 287 287 285 287 287 289 291
242 243 248 250 248 247 249 251 250 251 252 252 253 254 255 254 254 253 252 252 253 253 254 255 256 258 260 263 264 267 269 271 273 276 278 279 281 283 284 284 285 286 288 289
244 245 247 249 250 250 249 251 252 252 253 254 254 255 256 256 255 254 254 254 254 255 254 254 255 257 259 261 263 264 265 268 271 273 274 276 278 280 282 284 285 284 284 285
245 247 250 251 251 251 253 253 253 253 253 253 254 256 256 256 255 255 256 255 255 255 255 255 256 258 259 260 261 263 265 265 267 269 271 272 275 277 280 282 282 282 280 281
245 247 250 253 254 254 255 255 254 254 255 255 255 255 256 256 256 257 257 256 256 257 257 257 257 257 258 260 259 260 263 265 268 269 271 272 273 276 278 279 281 280 279 279
247 248 251 253 254 254 254 255 255 255 255 256 256 256 256 256 256 257 257 256 256 257 258 259 259 260 261 262 263 263 264 265 267 269 270 270 272 275 276 278 277 277 277 277
248 249 251 252 253 255 255 256 256 257 257 258 257 257 258 258 258 257 257 257 257 257 258 258 259 260 261 261 263 264 264 265 267 267 269 272 275 277 277 276 277 275 273 275
249 250 252 253 254 256 257 258 258 260 260 261 261 260 259 259 260 258 257 257 257 257 258 258 259 260 262 263 263 263 264 264 266 268 271 272 275 276 276 275 275 276 275 275
249 251 252 254 257 258 259 259 260 260 261 263 263 262 261 260 260 260 259 258 257 257 257 258 259 261 262 264 265 265 266 265 266 267 269 270 273 275 273 273 274 275 275 275
248 251 253 256 258 259 260 260 261 262 262 263 263 262 261 261 260 259 259 258 258 258 258 259 260 261 263 264 265 266 266 266 267 267 269 270 271 271 272 271 272 274 273 273
249 253 255 257 259 260 261 261 262 263 263 264 263 263 262 262 262 261 261 260 259 259 259 259 260 261 261 262 264 265 266 267 267 268 270 271 271 270 269 270 271 273 273 273
251 254 257 259 260 261 263 262 262 263 264 263 264 264 263 262 260 261 260 260 259 258 259 259 260 260 261 262 263 264 266 266 266 268 269 269 269 268 268 270 272 274 275 274
255 257 259 259 260 261 261 261 262 263 263 263 264 264 263 262 262 262 261 260 260 259 260 260 259 259 261 262 262 263 264 265 266 268 267 267 268 268 267 269 272 273 274 276
261 261 260 259 259 260 261 262 262 263 264 264 265 265 265 265 265 264 262 261 260 260 260 259 259 259 261 262 262 262 264 265 266 268 267 266 267 267 268 269 272 272 273 275
263 262 262 262 261 261 262 263 263 265 266 266 266 266 265 265 264 262 261 261 259 259 260 260 259 260 261 261 262 262 263 265 266 268 268 266 267 267 268 269 270 272 274 275
262 264 266 266 266 267 264 262 263 266 268 268 268 268 266 265 264 263 261 259 258 257 258 261 262 262 263 263 263 263 264 264 267 268 267 269 269 269 269 269 271 273 274 274
262 266 269 268 266 267 267 267 267 268 270 271 270 269 267 266 265 264 261 260 259 259 259 260 261 262 265 266 266 266 267 268 268 270 270 271 272 271 273 274 273 273 274 274
266 269 271 270 270 269 270 270 269 271 275 276 274 270 270 270 270 266 264 263 262 260 260 260 260 262 265 267 267 268 269 270 269 270 271 272 273 272 273 274 275 275 275 276
268 272 274 273 271 269 268 269 270 272 275 277 279 277 276 274 271 267 264 263 261 262 263 264 264 265 266 267 267 268 269 269 269 269 270 272 273 274 275 276 276 277 277 278
270 275 278 277 275 272 270 272 275 277 278 279 281 281 278 275 272 269 267 264 262 262 264 267 269 269 269 270 269 268 270 270 270 271 273 275 277 276 275 276 276 277 279 280
272 275 280 282 282 280 277 276 278 280 280 281 281 280 278 275 271 268 266 265 266 266 268 270 271 270 269 269 271 272 275 276 276 275 275 277 278 279 278 278 279 280 282 283
274 276 281 286 287 286 284 282 280 280 282 283 283 281 279 276 272 270 269 270 270 270 270 270 270 271 271 271 274 276 275 276 278 277 277 278 279 279 280 281 281 281 282 282
278 282 287 290 291 290 289 290 287 284 283 284 283 280 280 280 275 273 273 273 274 275 273 272 274 275 277 278 277 276 276 277 278 279 280 281 281 281 280 280 281 283 284 286
Height
5845 5849 5852 5854 5857 5860 5863 5867 5871 5873 5874 5876 5878 5880 5881 5883 5885 5886 5888 5889 5889 5890 5890 5891 5891 5891 5890 5890 5889 5889 5888 5887 5886 5884 5883 5881 5879 5878 5876 5875 5873 5871 5869 5868
5836 5840 5843 5845 5849 5852 5855 5858 5861 5863 5865 5867 5870 5871 5873 5875 5877 5878 5880 5881 5882 5883 5883 5884 5884 5884 5884 5884 5883 5882 5882 5881 5880 5879 5878 5876 5874 5873 5871 5870 5868 5866 5865 5863
5827 5830 5833 5836 5840 5843 5846 5849 5852 5854 5857 5859 5861 5863 5865 5866 5868 5870 5871 5873 5874 5875 5876 5876 5877 5877 5877 5877 5876 5876 5875 5875 5874 5873 5872 5870 5868 5867 5866 5864 5862 5861 5859 5857
5819 5822 5824 5829 5831 5834 5837 5839 5842 5845 5847 5849 5851 5853 5855 5857 5858 5860 5862 5864 5865 5866 5867 5868 5868 5869 5869 5869 5869 5869 5868 5868 5867 5866 5865 5863 5861 5860 5859 5857 5856 5854 5853 5851
5810 5812 5815 5818 5821 5824 5827 5829 5832 5835 5837 5839 5841 5844 5845 5846 5848 5850 5852 5854 5855 5857 5858 5858 5859 5860 5861 5861 5861 5861 5860 5860 5859 5858 5857 5855 5854 5853 5851 5850 5848 5847 5845 5844
5800 5804 5806 5808 5811 5814 5818 5818 5821 5824 5826 5829 5831 5833 5835 5836 5838 5840 5842 5843 5845 5846 5848 5849 5850 5850 5851 5851 5852 5852 5852 5851 5850 5850 5848 5847 5846 5845 5844 5842 5840 5839 5837 5836
5790 5793 5796 5798 5801 5804 5808 5809 5811 5813 5815 5818 5820 5822 5824 5825 5827 5828 5831 5832 5834 5835 5837 5838 5839 5840 5841 5841 5842 5842 5842 5841 5840 5840 5839 5838 5838 5836 5835 5833 5832 5830 5829 5827
5781 5784 5788 5787 5791 5794 5796 5798 5800 5802 5804 5806 5808 5810 5812 5813 5815 5817 5819 5821 5822 5824 5825 5827 5828 5829 5830 5831 5831 5831 5830 5830 5829 5828 5828 5828 5827 5826 5825 5824 5822 5820 5819 5818
5772 5775 5775 5777 5780 5782 5785 5787 5789 5791 5793 5795 5797 5798 5800 5801 5803 5805 5806 5808 5810 5811 5813 5814 5815 5817 5818 5818 5818 5819 5819 5819 5818 5818 5818 5817 5816 5816 5815 5814 5812 5811 5809 5808
5760 5763 5765 5767 5769 5771 5773 5776 5778 5780 5781 5783 5785 5786 5788 5789 5791 5792 5794 5796 5797 5799 5800 5802 5803 5804 5805 5805 5806 5807 5807 5807 5806 5805 5804 5804 5805 5805 5804 5804 5802 5801 5800 5798
5750 5753 5755 5757 5758 5761 5762 5764 5766 5768 5769 5771 5772 5774 5775 5776 5778 5779 5781 5783 5784 5786 5787 5789 5790 5791 5792 5793 5794 5794 5794 5794 5792 5792 5791 5791 5792 5792 5793 5793 5792 5790 5789 5787
5741 5743 5745 5747 5748 5750 5752 5753 5754 5756 5757 5758 5759 5760 5761 5763 5764 5765 5767 5769 5770 5772 5774 5775 5777 5778 5779 5780 5780 5781 5781 5780 5780 5780 5780 5780 5781 5781 5781 5781 5780 5779 5777 5776
5731 5733 5735 5737 5738 5739 5741 5742 5743 5744 5745 5746 5746 5747 5747 5749 5750 5752 5754 5755 5757 5758 5760 5762 5763 5765 5766 5767 5767 5767 5767 5767 5767 5767 5767 5768 5769 5769 5768 5768 5768 5767 5766 5765
5721 5723 5725 5727 5728 5729 5729 5730 5731 5732 5732 5733 5733 5734 5734 5736 5737 5739 5740 5742 5743 5745 5747 5748 5750 5751 5752 5753 5753 5754 5754 5754 5755 5755 5755 5755 5756 5756 5756 5755 5755 5754 5754 5753
5712 5713 5715 5716 5717 5718 5719 5719 5720 5720 5720 5721 5721 5722 5723 5723 5724 5726 5727 5728 5730 5732 5733 5734 5736 5737 5738 5739 5740 5741 5741 5741 5742 5742 5743 5743 5743 5743 5742 5742 5742 5742 5741 5740
5703 5704 5705 5706 5707 5707 5708 5708 5708 5709 5709 5709 5710 5710 5711 5711 5712 5713 5714 5715 5717 5719 5720 5721 5722 5724 5725 5726 5727 5727 5728 5729 5729 5730 5730 5730 5730 5730 5730 5730 5729 5729 5728 5727
5695 5696 5697 5697 5698 5698 5698 5698 5698 5698 5698 5699 5699 5699 5700 5700 5701 5702 5703 5704 5705 5706 5707 5708 5709 5710 5712 5713 5714 5715 5716 5717 5717 5717 5718 5718 5718 5717 5717 5717 5717 5717 5716 5716
5687 5687 5688 5688 5689 5689 5689 5689 5689 5689 5689 5689 5689 5689 5689 5690 5690 5691 5692 5693 5693 5694 5695 5697 5697 5698 5700 5701 5702 5703 5704 5705 5705 5706 5706 5706 5707 5706 5706 5705 5705 5705 5704 5703
5680 5680 5680 5680 5680 5680 5680 5681 5680 5680 5680 5680 5680 5680 5680 5680 5680 5681 5681 5682 5683 5684 5685 5687 5688 5689 5690 5690 5691 5692 5693 5693 5694 5695 5695 5695 5695 5695 5694 5694 5693 5693 5692 5692
5674 5674 5674 5673 5673 5673 5673 5673 5673 5673 5673 5673 5672 5672 5672 5672 5672 5672 5672 5673 5674 5675 5676 5677 5678 5679 5680 5681 5681 5682 5683 5683 5684 5684 5684 5684 5684 5684 5684 5683 5683 5682 5682 5681
5669 5668 5668 5668 5668 5667 5667 5667 5667 5667 5667 5666 5666 5665 5665 5664 5664 5664 5665 5665 5666 5666 5667 5669 5670 5671 5672 5672 5672 5672 5672 5673 5673 5673 5673 5674 5673 5673 5673 5673 5673 5672 5672 5671
5664 5663 5663 5663 5662 5662 5662 5662 5661 5661 5661 5660 5660 5659 5658 5658 5657 5657 5658 5658 5659 5660 5661 5662 5663 5663 5663 5664 5663 5663 5663 5663 5663 5664 5663 5663 5663 5663 5663 5663 5663 5663 5662 5661
5659 5659 5658 5658 5657 5657 5657 5656 5656 5656 5656 5655 5654 5653 5652 5651 5651 5650 5651 5652 5653 5654 5655 5655 5656 5656 5656 5656 5656 5656 5655 5655 5655 5655 5655 5655 5654 5654 5654 5653 5653 5653 5653 5652
5655 5655 5654 5653 5652 5652 5652 5651 5651 5651 5650 5650 5649 5648 5647 5646 5646 5645 5646 5647 5647 5648 5648 5649 5649 5649 5649 5649 5649 5648 5648 5648 5647 5647 5647 5647 5647 5646 5646 5645 5645 5644 5643 5642
5651 5651 5650 5649 5649 5648 5648 5647 5647 5646 5646 5645 5644 5643 5642 5642 5641 5641 5641 5641 5642 5642 5642 5643 5643 5643 5643 5643 5642 5642 5641 5641 5640 5640 5639 5639 5639 5638 5638 5637 5637 5636 5635 5633
5648 5647 5647 5646 5645 5645 5644 5643 5643 5642 5641 5641 5640 5639 5638 5638 5637 5637 5637 5637 5637 5637 5637 5637 5637 5637 5637 5637 5636 5636 5635 5635 5634 5633 5633 5632 5632 5631 5630 5629 5629 5628 5626 5625
5645 5644 5644 5643 5642 5642 5641 5640 5639 5639 5638 5637 5636 5635 5635 5634 5633 5633 5633 5632 5632 5632 5632 5632 5632 5632 5632 5631 5631 5630 5630 5629 5628 5627 5626 5626 5625 5624 5623 5622 5621 5619 5618 5617